Location: Ciserano
(45.5833°N, 9.6000°E)
Time: 12:18:36
(UTC+00:00)

Cosmos 1844 Rocket - Pass Details

Date: 29 November 2020
Orbit: 824 x 845 km, 71.0° (Epoch: 25 January)

Event Time Altitude Azimuth Distance (km) Brightness Sun altitude
Rises 05:53:23 0° 233° (SW) 3,380 5.5 -8.0°
Reaches altitude 10° 05:56:02 10° 242° (WSW) 2,452 4.8 -7.6°
Maximum altitude 06:01:08 34° 307° (NW) 1,356 3.3 -6.8°
Drops below altitude 10° 06:06:16 10° 12° (NNE) 2,474 5.0 -6.0°
Sets 06:08:58 0° 21° (NNE) 3,414 5.8 -5.6°
